Weather History for KBYY - February, 2012

Change the Weather History Date:

Sunday, February 12, 2012

  Actual Average (KLBX) Record (KLBX)
Temperature  
Mean Temperature 43 °F -  
Max Temperature 47 °F 63 °F 75 °F (2000)
Min Temperature 39 °F 47 °F 24 °F (2006)
Degree Days  
Heating Degree Days 22    
Moisture  
Dew Point 32 °F    
Average Humidity 66    
Maximum Humidity 87    
Minimum Humidity 52    
Precipitation  
Precipitation 0.00 in - - ()
Sea Level Pressure  
Sea Level Pressure 30.46 in    
Wind  
Wind Speed 12 mph (NE)    
Max Wind Speed 18 mph    
Max Gust Speed 21 mph    
Visibility 10 miles    
Events Rain    
Averages and records for this station are not official NWS values.
T = Trace of Precipitation, MM = Missing Value Source: NWS Daily Summary

Daily Weather History Graph

Daily Weather History Graph

Search for Another Location

Airport or City:

Trip Planner

Search our weather history database for the weather conditions in past years. The results will help you decide how hot, cold, wet, or windy it might be!

Date:

Astronomy

Feb. 12, 2012 Rise Set
Actual Time 7:04 AM CST 6:10 PM CST
Civil Twilight 6:40 AM CST 6:35 PM CST
Nautical Twilight 6:12 AM CST 7:03 PM CST
Astronomical Twilight 5:45 AM CST 7:30 PM CST
Moon 11:34 PM CST (2/12) 9:56 AM CST (2/12)
Length of Visible Light 11h 54m
Length of Day
11h 05m
Waning Gibbous, 72% of the Moon is Illuminated
Feb 12
Waning Gibbous
Feb 14
Last Quarter
Feb 21
New
Feb 29
First Quarter
Mar 8
Full

Hourly Weather History & Observations

Time (CST) Temp. Windchill Dew Point Humidity Pressure Visibility Wind Dir Wind Speed Gust Speed Precip Events Conditions
12:15 AM 46.8 °F - 29.8 °F 52% 30.47 in 10.0 mi NE 10.4 mph - N/A   Clear
12:35 AM 46.2 °F 40.5 °F 30.4 °F 54% 30.48 in 10.0 mi NE 12.7 mph - N/A   Clear
12:55 AM 45.7 °F 40.6 °F 30.6 °F 56% 30.50 in 10.0 mi NE 10.4 mph - N/A   Clear
1:15 AM 45.5 °F 39.6 °F 29.7 °F 54% 30.49 in 10.0 mi NE 12.7 mph - N/A   Clear
1:35 AM 45.3 °F 40.1 °F 29.8 °F 55% 30.50 in 10.0 mi NNE 10.4 mph - N/A   Clear
1:55 AM 45.1 °F 39.1 °F 29.8 °F 55% 30.51 in 10.0 mi NE 12.7 mph - N/A   Clear
2:15 AM 44.8 °F 39.0 °F 29.3 °F 55% 30.51 in 10.0 mi NE 11.5 mph - N/A   Clear
2:35 AM 44.1 °F 39.0 °F 30.0 °F 58% 30.50 in 10.0 mi NNE 9.2 mph - N/A   Clear
2:55 AM 43.5 °F 37.5 °F 30.2 °F 59% 30.51 in 10.0 mi NNE 11.5 mph 16.1 mph N/A   Clear
3:15 AM 43.2 °F 37.0 °F 29.7 °F 59% 30.50 in 10.0 mi NE 11.5 mph - N/A   Clear
3:35 AM 42.6 °F 35.6 °F 29.3 °F 59% 30.48 in 10.0 mi NE 13.8 mph - N/A   Clear
3:55 AM 42.1 °F 36.1 °F 28.9 °F 60% 30.48 in 10.0 mi NE 10.4 mph - N/A   Clear
4:15 AM 41.7 °F 34.1 °F 28.9 °F 61% 30.47 in 10.0 mi NE 15.0 mph 18.4 mph N/A   Clear
4:35 AM 41.4 °F 34.0 °F 27.3 °F 57% 30.49 in 10.0 mi NE 13.8 mph 17.3 mph N/A   Clear
4:55 AM 41.2 °F 34.5 °F 27.0 °F 57% 30.48 in 10.0 mi NE 11.5 mph - N/A   Clear
5:15 AM 40.6 °F 34.3 °F 27.3 °F 59% 30.49 in 10.0 mi NE 10.4 mph - N/A   Clear
5:35 AM 40.5 °F 34.6 °F 27.3 °F 59% 30.50 in 10.0 mi NE 9.2 mph - N/A   Clear
5:55 AM 40.3 °F 33.9 °F 27.7 °F 61% 30.49 in 10.0 mi NE 10.4 mph - N/A   Clear
6:15 AM 40.1 °F 32.4 °F 27.5 °F 61% 30.47 in 10.0 mi NE 13.8 mph - N/A   Clear
6:35 AM 39.6 °F 32.5 °F 27.3 °F 62% 30.49 in 10.0 mi NE 11.5 mph - N/A   Clear
6:55 AM 39.4 °F 32.7 °F 27.5 °F 62% 30.51 in 10.0 mi NE 10.4 mph - N/A   Clear
7:15 AM 39.2 °F 32.5 °F 27.9 °F 64% 30.50 in 10.0 mi NE 10.4 mph - N/A   Clear
7:35 AM 39.2 °F 32.0 °F 27.9 °F 64% 30.51 in 10.0 mi NE 11.5 mph - N/A   Clear
7:55 AM 39.4 °F 31.1 °F 26.8 °F 61% 30.52 in 10.0 mi NE 15.0 mph - N/A   Clear
8:15 AM 39.4 °F 31.8 °F 25.9 °F 58% 30.52 in 10.0 mi ENE 12.7 mph - N/A   Clear
8:35 AM 39.6 °F 32.5 °F 26.6 °F 60% 30.52 in 10.0 mi NE 11.5 mph - N/A   Clear
8:55 AM 40.1 °F 31.0 °F 27.7 °F 61% 30.51 in 10.0 mi NE 18.4 mph - N/A   Clear
9:15 AM 40.3 °F 32.2 °F 28.6 °F 63% 30.51 in 10.0 mi NE 15.0 mph 19.6 mph N/A   Clear
9:35 AM 41.2 °F 34.1 °F 29.8 °F 64% 30.52 in 10.0 mi NE 12.7 mph - N/A   Clear
9:55 AM 42.3 °F 35.1 °F 30.7 °F 64% 30.52 in 10.0 mi ENE 13.8 mph - N/A   Clear
10:15 AM 42.3 °F 35.1 °F 31.1 °F 65% 30.52 in 10.0 mi NE 13.8 mph 20.7 mph N/A   Clear
10:35 AM 42.1 °F 34.5 °F 31.5 °F 66% 30.52 in 10.0 mi NE 15.0 mph - N/A   Clear
10:55 AM 42.6 °F 35.2 °F 32.0 °F 66% 30.51 in 10.0 mi ENE 15.0 mph - N/A   Clear
11:15 AM 43.2 °F 37.0 °F 32.4 °F 66% 30.50 in 10.0 mi ENE 11.5 mph - N/A   Clear
11:35 AM 43.5 °F 36.4 °F 33.1 °F 67% 30.50 in 10.0 mi ENE 15.0 mph - N/A   Scattered Clouds
11:55 AM 44.2 °F 38.0 °F 33.6 °F 66% 30.49 in 10.0 mi ENE 12.7 mph - N/A   Scattered Clouds
12:15 PM 44.4 °F 38.2 °F 34.3 °F 68% 30.48 in 10.0 mi ENE 12.7 mph 17.3 mph N/A   Scattered Clouds
12:35 PM 45.0 °F 39.3 °F 34.9 °F 68% 30.47 in 10.0 mi NE 11.5 mph - N/A   Scattered Clouds
12:55 PM 45.3 °F 41.1 °F 35.8 °F 69% 30.46 in 10.0 mi ENE 8.1 mph - N/A   Mostly Cloudy
1:15 PM 45.9 °F 39.7 °F 36.5 °F 70% 30.43 in 10.0 mi NE 13.8 mph - N/A   Overcast
1:35 PM 45.9 °F 39.7 °F 36.9 °F 71% 30.42 in 10.0 mi NE 13.8 mph 18.4 mph N/A   Overcast
1:55 PM 45.7 °F 41.0 °F 37.0 °F 72% 30.42 in 10.0 mi ENE 9.2 mph - N/A   Overcast
2:15 PM 46.0 °F 41.9 °F 37.8 °F 73% 30.41 in 10.0 mi ENE 8.1 mph - N/A   Overcast
2:35 PM 47.1 °F - 38.7 °F 72% 30.39 in 10.0 mi East 12.7 mph 16.1 mph N/A   Mostly Cloudy
2:55 PM 46.8 °F - 38.8 °F 74% 30.37 in 10.0 mi East 13.8 mph 17.3 mph N/A   Mostly Cloudy
3:15 PM 46.8 °F - 38.7 °F 73% 30.36 in 10.0 mi East 11.5 mph 17.3 mph N/A   Overcast
3:35 PM 47.1 °F - 39.0 °F 73% 30.38 in 10.0 mi ENE 8.1 mph - N/A Rain Light Rain
3:55 PM 46.9 °F - 39.6 °F 76% 30.37 in 10.0 mi ENE 12.7 mph - N/A Rain Light Rain
4:15 PM 46.6 °F - 39.9 °F 78% 30.36 in 10.0 mi East 10.4 mph - N/A Rain Light Rain
4:35 PM 46.4 °F 41.9 °F 39.9 °F 78% 30.35 in 10.0 mi ENE 9.2 mph - N/A Rain Light Rain
4:55 PM 46.0 °F 41.0 °F 40.3 °F 80% 30.35 in 10.0 mi ENE 10.4 mph - N/A Rain Light Rain
5:15 PM 45.9 °F 42.3 °F 40.8 °F 83% 30.34 in 10.0 mi ENE 6.9 mph - N/A Rain Light Rain
5:35 PM 45.7 °F 40.6 °F 41.4 °F 85% 30.33 in 10.0 mi ENE 10.4 mph - N/A Rain Light Rain
5:55 PM 45.7 °F 41.5 °F 41.5 °F 85% 30.32 in 10.0 mi ENE 8.1 mph - N/A   Light Drizzle
6:15 PM 45.9 °F 40.8 °F 41.4 °F 84% 30.32 in 10.0 mi East 10.4 mph - N/A Rain Light Rain
6:35 PM 45.7 °F 41.5 °F 41.5 °F 85% 30.31 in 10.0 mi ENE 8.1 mph - N/A   Mostly Cloudy
6:55 PM 45.7 °F 41.5 °F 41.5 °F 85% 30.31 in 10.0 mi NE 8.1 mph - N/A Rain Light Rain
7:15 PM 45.7 °F 40.6 °F 41.9 °F 87% 30.29 in 10.0 mi ENE 10.4 mph - N/A   Light Drizzle
7:35 PM 45.5 °F 40.3 °F 42.1 °F 88% 30.28 in 10.0 mi ENE 10.4 mph - N/A Rain Light Rain
7:55 PM 45.7 °F 41.0 °F 42.6 °F 89% 30.29 in 10.0 mi ENE 9.2 mph - N/A Rain Light Rain
8:15 PM 45.9 °F 42.3 °F 42.8 °F 89% 30.29 in 10.0 mi NE 6.9 mph - N/A   Light Drizzle
8:35 PM 46.2 °F 42.2 °F 43.2 °F 89% 30.29 in 10.0 mi NE 8.1 mph - 0.01 in Rain Light Rain
8:55 PM 46.4 °F 42.4 °F 44.4 °F 93% 30.29 in 10.0 mi NE 8.1 mph - 0.01 in   Overcast
9:15 PM 46.6 °F - 45.1 °F 95% 30.29 in 10.0 mi ENE 9.2 mph - N/A   Overcast
9:35 PM 46.9 °F - 45.5 °F 95% 30.27 in 10.0 mi ENE 9.2 mph - N/A   Overcast
9:55 PM 47.3 °F - 44.8 °F 91% 30.27 in 10.0 mi ENE 9.2 mph - N/A   Overcast
10:15 PM 47.5 °F - 44.8 °F 90% 30.27 in 10.0 mi ENE 9.2 mph - N/A   Overcast
10:35 PM 47.8 °F - 44.8 °F 89% 30.26 in 10.0 mi ENE 9.2 mph - N/A   Light Drizzle
10:55 PM 48.0 °F - 45.0 °F 89% 30.25 in 10.0 mi ENE 9.2 mph - N/A   Overcast
11:15 PM 48.2 °F - 45.3 °F 90% 30.22 in 10.0 mi ENE 12.7 mph - N/A   Overcast
11:35 PM 48.2 °F - 44.6 °F 87% 30.21 in 10.0 mi ENE 12.7 mph - N/A   Overcast
11:55 PM 49.1 °F - 45.7 °F 88% 30.19 in 10.0 mi East 11.5 mph - N/A   Mostly Cloudy